Regional Weather Roundup
Issued by NWS

Home | Current Version | Previous Version | Graphics & Text | Print | Product List | Glossary On
Versions: 1 2 3 4 5 6 7 8 9 10 11 12 13 14 15 16 17 18 19 20 21 22 23 24 25 26 27 28 29 30 31 32 33 34 35 36 37 38 39 40 41 42 43 44 45 46 47 48 49 50
707
ASUS43 KFSD 011002
RWRSD

WEATHER ROUNDUP FOR SOUTH DAKOTA
NATIONAL WEATHER SERVICE SIOUX FALLS SD
400 AM CST WED MAR 01 2017

NOTE: "FAIR" INDICATES FEW OR NO CLOUDS BELOW 12,000 FEET WITH NO
SIGNIFICANT WEATHER AND/OR OBSTRUCTIONS TO VISIBILITY.


SDZ001>005-009-010-012>017-011100-
NORTHWEST AND NORTH CENTRAL SOUTH DAKOTA

CITY           SKY/WX    TMP DP  RH WIND       PRES   REMARKS
BUFFALO          N/A     24  19  81 NW25      29.85R WCI   8
FAITH            N/A     21  17  84 W14       29.90R WCI   8
MOBRIDGE       CLOUDY    19  14  81 CALM      29.89S
$$

SDZ012>016-024>037-041>051-057-063-072>074-011100-
SOUTHWEST AND SOUTH CENTRAL SOUTH DAKOTA

CITY           SKY/WX    TMP DP  RH WIND       PRES   REMARKS
RAPID CTY ARPT PTCLDY    27  18  69 NW20      29.92R WCI  13
PIERRE         CLOUDY    22  20  92 NW10      29.92S WCI  11
CUSTER         CLEAR     19   8  62 NW9G18    29.86R WCI   8
ELLSWORTH AFB  PTCLDY    28  22  78 NW22      29.92R WCI  14
PHILIP         CLOUDY    16  14  92 W9        29.93F WCI   4
PINE RIDGE     MOCLDY    19  13  77 W5        29.94S WCI  12
SPEARFISH      CLOUDY    25  18  74 W18G26    29.95R WCI  11
WINNER         CLOUDY    26  23  88 NW8       29.93R WCI  18
$$

SDZ004>011-016>023-039-040-011100-
NORTHEAST SOUTH DAKOTA

CITY           SKY/WX    TMP DP  RH WIND       PRES   REMARKS
ABERDEEN       PTCLDY    20  15  81 NW12      29.92R WCI   8
WATERTOWN      CLOUDY    22  20  92 NW10      29.83R WCI  11
BROOKINGS      FLURRIES  25  22  88 NW14      29.82R WCI  13
SISSETON         N/A     20  17  88 N15       29.87R WCI   6
$$

SDZ017-020-022-023-036>040-048>070-011100-
SOUTHEAST SOUTH DAKOTA

CITY           SKY/WX    TMP DP  RH WIND       PRES   REMARKS
SIOUX FALLS    LGT SNOW  29  28  96 N13       29.82R FOG     WCI  19
HURON          LGT SNOW  24  23  96 NW15      29.91R FOG     WCI  11
CHAMBERLAIN    MOCLDY    26  25  97 NW9       29.93R WCI  16
MITCHELL       CLOUDY    27  24  89 NW17      29.91R WCI  14
YANKTON        MOCLDY    28  25  86 NW20      29.86R WCI  15
$$

ABBREVIATIONS USED IN REMARKS
   TC - TEMPERATURE IN CELSIUS
  WCI - WIND CHILL INDEX
   HX - HEAT INDEX
  VSB - VISIBILITY





USA.gov is the U.S. government's official web portal to all federal, state and local government web resources and services.